Orbital Elements at Epoch 2459200.5 (2020-Dec-17.0) TDB
Reference: JPL 30 (heliocentric ecliptic J2000)
Element | Value | Uncertainty (1-sigma) | Units |
e | .2100400501292322 | 3.3384e-08 | |
a | 2.366838905135383 | 8.0326e-09 | au |
q | 1.86970794285293 | 8.0441e-08 | au |
i | 1.270181573131207 | 3.8167e-06 | deg |
node | 275.6679354888282 | 0.00017542 | deg |
peri | 38.53900713208915 | 0.00017567 | deg |
M | 225.5749162869589 | 1.0281e-05 | deg |
tp | 2459697.125815073310 (2022-Apr-27.62581507) | 3.8675e-05 | TDB |
period | 1329.999494797019 3.64 | 6.7706e-06 1.854e-08 | d yr |
n | .2706767945464086 | 1.3779e-09 | deg/d |
Q | 2.863969867417836 | 9.7197e-09 | au |
|
| | Orbit Determination Parameters
Additional Information
|